User: anonymous   Login
Location: Curupao
(10.4996°N, 66.6442°W)
Time: 07:51:34
(UTC+00:00)
Language:

Cosmos 1484 Rocket - Orbit

View from above orbital plane
View from above orbital plane
View from above satellite
View from above satellite

Ground track
Ground track

The orbit data is extracted from the following two-line orbital elements,

1 14208U 83075B   24202.19367785  .00008673  00000-0  37668-3 0  9991
2 14208  97.5699 181.6990 0031004 179.5307 180.5964 15.22117071239044
Epoch (UTC): 20 July 2024 04:38:53
Eccentricity: 0.0031004
inclination: 97.5699°
perigee height: 478 km
apogee height: 521 km
right ascension of ascending node: 181.6990°
argument of perigee: 179.5307°
revolutions per day: 15.22117071
mean anomaly at epoch: 180.5964°
orbit number at epoch: 23904

The dashed part of the orbit path shows where the satellite is in the earth's shadow,  

DLR